Date,TemperatureHighF,TemperatureAvgF,TemperatureLowF,DewpointHighF,DewpointAvgF,DewpointLowF,HumidityHigh,HumidityAvg,HumidityLow,PressureMaxIn,PressureMinIn,WindSpeedMaxMPH,WindSpeedAvgMPH,GustSpeedMaxMPH,PrecipitationSumIn
2013-1-1,19,10,3,-100,-100,-100,0,0,100,0.00,40.00,0,-999,0,0.01
2013-1-2,19,9,4,-100,-100,-100,0,0,100,0.00,40.00,0,-999,0,0.00
2013-1-3,40,23,13,-100,-100,-100,0,0,100,0.00,40.00,0,-999,0,0.01
2013-1-4,32,23,19,-100,-100,-100,0,0,100,0.00,40.00,0,-999,0,0.00
2013-1-5,34,22,15,-100,-100,-100,0,0,100,0.00,40.00,0,-999,0,0.01
2013-1-6,29,24,17,-100,-100,-100,0,0,100,0.00,40.00,0,-999,0,0.01
2013-1-7,20,17,15,-100,-100,-100,0,0,100,0.00,40.00,0,-999,0,0.01
2013-1-8,22,19,16,-100,-100,-100,0,0,100,0.00,40.00,0,-999,0,0.02
2013-1-9,32,26,22,-100,-100,-100,0,0,100,0.00,40.00,0,-999,0,0.01
2013-1-10,32,23,8,-100,-100,-100,0,0,100,0.00,40.00,0,-999,0,0.01
2013-1-11,8,0,-12,-100,-100,-100,0,0,100,0.00,40.00,0,-999,0,0.00
2013-1-12,1,-8,-11,-100,-100,-100,0,0,100,0.00,40.00,0,-999,0,0.00
2013-1-13,-3,-10,-15,-100,-100,-100,0,0,100,0.00,40.00,0,-999,0,0.00
2013-1-14,-2,-9,-18,-100,-100,-100,0,0,100,0.00,40.00,0,-999,0,0.01
2013-1-15,16,9,-3,-100,-100,-100,0,0,100,0.00,40.00,0,-999,0,0.02
2013-1-16,29,18,11,-100,-100,-100,0,0,100,0.00,40.00,0,-999,0,0.01
2013-1-17,29,22,19,-100,-100,-100,0,0,100,0.00,40.00,0,-999,0,0.00
2013-1-18,31,22,19,-100,-100,-100,0,0,100,0.00,40.00,0,-999,0,0.01
2013-1-19,28,22,18,-100,-100,-100,0,0,100,0.00,40.00,0,-999,0,0.00
2013-1-20,31,24,21,-100,-100,-100,0,0,100,0.00,40.00,0,-999,0,0.00
2013-1-21,33,24,20,-100,-100,-100,0,0,100,0.00,40.00,0,-999,0,0.02
2013-1-22,35,27,22,-100,-100,-100,0,0,100,0.00,40.00,0,-999,0,0.02
2013-1-23,36,32,29,-100,-100,-100,0,0,100,0.00,40.00,0,-999,0,0.00
2013-1-24,30,26,23,-100,-100,-100,0,0,100,0.00,40.00,0,-999,0,0.01
2013-1-25,27,25,23,-100,-100,-100,0,0,100,0.00,40.00,0,-999,0,0.01
2013-1-26,30,29,27,-100,-100,-100,0,0,100,0.00,40.00,0,-999,0,0.01
2013-1-27,27,22,13,-100,-100,-100,0,0,100,0.00,40.00,0,-999,0,0.04
2013-1-28,12,9,5,-100,-100,-100,0,0,100,0.00,40.00,0,-999,0,0.01
2013-1-29,18,10,7,-100,-100,-100,0,0,100,0.00,40.00,0,-999,0,0.02
2013-1-30,21,16,8,-100,-100,-100,0,0,100,0.00,40.00,0,-999,0,0.02
2013-1-31,24,21,18,-100,-100,-100,0,0,100,0.00,40.00,0,-999,0,0.01
2013-2-1,26,22,18,-100,-100,-100,0,0,100,0.00,40.00,0,-999,0,0.02
2013-2-2,33,21,16,-100,-100,-100,0,0,100,0.00,40.00,0,-999,0,0.00
2013-2-3,30,20,15,-100,-100,-100,0,0,100,0.00,40.00,0,-999,0,0.00
2013-2-4,24,20,16,-100,-100,-100,0,0,100,0.00,40.00,0,-999,0,0.00
2013-2-5,30,25,21,-100,-100,-100,0,0,100,0.00,40.00,0,-999,0,0.01
2013-2-6,23,19,10,-100,-100,-100,0,0,100,0.00,40.00,0,-999,0,0.00
2013-2-7,30,17,9,-100,-100,-100,0,0,100,0.00,40.00,0,-999,0,0.00
2013-2-8,31,23,20,-100,-100,-100,0,0,100,0.00,40.00,0,-999,0,0.01
2013-2-9,27,19,13,-100,-100,-100,0,0,100,0.00,40.00,0,-999,0,0.00
2013-2-10,19,11,4,-100,-100,-100,0,0,100,0.00,40.00,0,-999,0,0.00
2013-2-11,15,5,-3,-100,-100,-100,0,0,100,0.00,40.00,0,-999,0,0.00
2013-2-12,20,12,1,-100,-100,-100,0,0,100,0.00,40.00,0,-999,0,0.01
2013-2-13,20,18,15,-100,-100,-100,0,0,100,0.00,40.00,0,-999,0,0.32
2013-2-14,21,17,14,-100,-100,-100,0,0,100,0.00,40.00,0,-999,0,0.99
2013-2-15,30,19,14,-100,-100,-100,0,0,100,0.00,40.00,0,-999,0,0.61
2013-2-16,29,22,18,-100,-100,-100,0,0,100,0.00,40.00,0,-999,0,0.47
2013-2-17,25,16,12,-100,-100,-100,0,0,100,0.00,40.00,0,-999,0,0.01
2013-2-18,22,12,8,-100,-100,-100,0,0,100,0.00,40.00,0,-999,0,0.01
2013-2-19,25,22,18,-100,-100,-100,0,0,100,0.00,40.00,0,-999,0,0.01
2013-2-20,28,22,16,-100,-100,-100,0,0,100,0.00,40.00,0,-999,0,0.01
2013-2-21,20,13,8,-100,-100,-100,0,0,100,0.00,40.00,0,-999,0,0.01
2013-2-22,16,12,9,-100,-100,-100,0,0,100,0.00,40.00,0,-999,0,0.01
2013-2-23,18,14,8,-100,-100,-100,0,0,100,0.00,40.00,0,-999,0,0.02
2013-2-24,24,10,2,-100,-100,-100,0,0,100,0.00,40.00,0,-999,0,0.01
2013-2-25,19,11,4,-100,-100,-100,0,0,100,0.00,40.00,0,-999,0,0.28
2013-2-26,17,10,5,-100,-100,-100,0,0,100,0.00,40.00,0,-999,0,0.50
2013-2-27,20,11,4,-100,-100,-100,0,0,100,0.00,40.00,0,-999,0,0.07
2013-2-28,22,16,9,-100,-100,-100,0,0,100,0.00,40.00,0,-999,0,0.02
2013-3-1,34,26,19,-100,-100,-100,0,0,100,0.00,40.00,0,-999,0,0.03
2013-3-2,41,30,25,-100,-100,-100,0,0,100,0.00,40.00,0,-999,0,0.02
2013-3-3,29,24,12,-100,-100,-100,0,0,100,0.00,40.00,0,-999,0,0.53
2013-3-4,18,9,3,-100,-100,-100,0,0,100,0.00,40.00,0,-999,0,0.63
2013-3-5,30,18,3,-100,-100,-100,0,0,100,0.00,40.00,0,-999,0,0.60
2013-3-6,34,27,18,-100,-100,-100,0,0,100,0.00,40.00,0,-999,0,0.04
2013-3-7,30,22,13,-100,-100,-100,0,0,100,0.00,40.00,0,-999,0,0.60
2013-3-8,31,26,20,-100,-100,-100,0,0,100,0.00,40.00,0,-999,0,0.01
2013-3-9,31,22,18,-100,-100,-100,0,0,100,0.00,40.00,0,-999,0,0.00
2013-3-10,33,23,16,-100,-100,-100,0,0,100,0.00,40.00,0,-999,0,0.00
2013-3-11,26,23,20,-100,-100,-100,0,0,100,0.00,40.00,0,-999,0,0.01
2013-3-12,30,24,18,-100,-100,-100,0,0,100,0.00,40.00,0,-999,0,0.02
2013-3-13,38,33,29,-100,-100,-100,0,0,100,0.00,40.00,0,-999,0,0.01
2013-3-14,44,38,33,-100,-100,-100,0,0,100,0.00,40.00,0,-999,0,0.00
2013-3-15,38,36,32,-100,-100,-100,0,0,100,0.00,40.00,0,-999,0,0.00
2013-3-16,35,29,26,-100,-100,-100,0,0,100,0.00,40.00,0,-999,0,0.00
2013-3-17,26,16,10,-100,-100,-100,0,0,100,0.00,40.00,0,-999,0,0.01
2013-3-18,18,13,7,-100,-100,-100,0,0,100,0.00,40.00,0,-999,0,0.00
2013-3-19,26,18,9,-100,-100,-100,0,0,100,0.00,40.00,0,-999,0,0.00
2013-3-20,29,27,23,-100,-100,-100,0,0,100,0.00,40.00,0,-999,0,0.02
2013-3-21,29,19,11,-100,-100,-100,0,0,100,0.00,40.00,0,-999,0,0.02
2013-3-22,22,11,3,-100,-100,-100,0,0,100,0.00,40.00,0,-999,0,0.01
2013-3-23,19,6,-1,-100,-100,-100,0,0,100,0.00,40.00,0,-999,0,0.00
2013-3-24,18,7,-2,-100,-100,-100,0,0,100,0.00,40.00,0,-999,0,0.00
2013-3-25,28,15,3,-100,-100,-100,0,0,100,0.00,40.00,0,-999,0,0.01
2013-3-26,35,26,18,-100,-100,-100,0,0,100,0.00,40.00,0,-999,0,0.01
2013-3-27,34,26,20,-100,-100,-100,0,0,100,0.00,40.00,0,-999,0,0.01
2013-3-28,40,33,25,-100,-100,-100,0,0,100,0.00,40.00,0,-999,0,0.00
2013-3-29,42,33,30,-100,-100,-100,0,0,100,0.00,40.00,0,-999,0,0.01
2013-3-30,38,32,28,-100,-100,-100,0,0,100,0.00,40.00,0,-999,0,0.02
2013-3-31,44,34,27,-100,-100,-100,0,0,100,0.00,40.00,0,-999,0,0.01
2013-4-1,48,38,30,-100,-100,-100,0,0,100,0.00,40.00,0,-999,0,0.00
2013-4-2,46,37,28,-100,-100,-100,0,0,100,0.00,40.00,0,-999,0,0.00
2013-4-3,44,36,31,-100,-100,-100,0,0,100,0.00,40.00,0,-999,0,0.00
2013-4-4,45,38,34,-100,-100,-100,0,0,100,0.00,40.00,0,-999,0,0.00
2013-4-5,36,31,28,-100,-100,-100,0,0,100,0.00,40.00,0,-999,0,0.03
2013-4-6,30,28,26,-100,-100,-100,0,0,100,0.00,40.00,0,-999,0,0.02
2013-4-7,28,27,24,-100,-100,-100,0,0,100,0.00,40.00,0,-999,0,0.01
2013-4-8,32,24,17,-100,-100,-100,0,0,100,0.00,40.00,0,-999,0,0.01
2013-4-9,30,20,14,-100,-100,-100,0,0,100,0.00,40.00,0,-999,0,0.00
2013-4-10,37,24,12,-100,-100,-100,0,0,100,0.00,40.00,0,-999,0,0.00
2013-4-11,37,30,25,-100,-100,-100,0,0,100,0.00,40.00,0,-999,0,0.02
2013-4-12,37,28,16,-100,-100,-100,0,0,100,0.00,40.00,0,-999,0,0.02
2013-4-13,31,25,14,-100,-100,-100,0,0,100,0.00,40.00,0,-999,0,0.02
2013-4-14,23,15,10,-100,-100,-100,0,0,100,0.00,40.00,0,-999,0,0.01
2013-4-15,26,19,9,-100,-100,-100,0,0,100,0.00,40.00,0,-999,0,0.01
2013-4-16,26,18,13,-100,-100,-100,0,0,100,0.00,40.00,0,-999,0,0.01
2013-4-17,26,14,6,-100,-100,-100,0,0,100,0.00,40.00,0,-999,0,0.00
2013-4-18,29,18,6,-100,-100,-100,0,0,100,0.00,40.00,0,-999,0,0.00
2013-4-19,29,24,20,-100,-100,-100,0,0,100,0.00,40.00,0,-999,0,0.03
2013-4-20,32,28,26,-100,-100,-100,0,0,100,0.00,40.00,0,-999,0,0.05
2013-4-21,31,27,23,-100,-100,-100,0,0,100,0.00,40.00,0,-999,0,0.01
2013-4-22,29,22,11,-100,-100,-100,0,0,100,0.00,40.00,0,-999,0,0.02
2013-4-23,32,19,4,-100,-100,-100,0,0,100,0.00,40.00,0,-999,0,0.00
2013-4-24,38,33,27,-100,-100,-100,0,0,100,0.00,40.00,0,-999,0,0.00
2013-4-25,43,35,24,-100,-100,-100,0,0,100,0.00,40.00,0,-999,0,0.00
2013-4-26,49,40,27,-100,-100,-100,0,0,100,0.00,40.00,0,-999,0,0.00
2013-4-27,49,42,34,-100,-100,-100,0,0,100,0.00,40.00,0,-999,0,0.01
2013-4-28,40,39,35,-100,-100,-100,0,0,100,0.00,40.00,0,-999,0,0.00
2013-4-29,37,34,31,-100,-100,-100,0,0,100,0.00,40.00,0,-999,0,0.00
2013-4-30,30,25,20,-100,-100,-100,0,0,100,0.00,40.00,0,-999,0,0.00
2013-5-1,32,23,16,-100,-100,-100,0,0,100,0.00,40.00,0,-999,0,0.01
2013-5-2,42,30,16,-100,-100,-100,0,0,100,0.00,40.00,0,-999,0,0.01
2013-5-3,48,38,30,-100,-100,-100,0,0,100,0.00,40.00,0,-999,0,0.01
2013-5-4,43,36,32,-100,-100,-100,0,0,100,0.00,40.00,0,-999,0,0.00
2013-5-5,48,38,32,-100,-100,-100,0,0,100,0.00,40.00,0,-999,0,0.00
2013-5-6,56,44,36,-100,-100,-100,0,0,100,0.00,40.00,0,-999,0,0.00
2013-5-7,56,42,35,-100,-100,-100,0,0,100,0.00,40.00,0,-999,0,0.00
2013-5-8,55,45,35,-100,-100,-100,0,0,100,0.00,40.00,0,-999,0,0.00
2013-5-9,56,43,35,-100,-100,-100,0,0,100,0.00,40.00,0,-999,0,0.00
2013-5-10,56,45,37,-100,-100,-100,0,0,100,0.00,40.00,0,-999,0,0.00
2013-5-11,55,46,39,-100,-100,-100,0,0,100,0.00,40.00,0,-999,0,0.00
2013-5-12,59,50,43,-100,-100,-100,0,0,100,0.00,40.00,0,-999,0,0.00
2013-5-13,59,54,48,-100,-100,-100,0,0,100,0.00,40.00,0,-999,0,0.00
2013-5-14,55,51,44,-100,-100,-100,0,0,100,0.00,40.00,0,-999,0,0.00
2013-5-15,58,49,43,-100,-100,-100,0,0,100,0.00,40.00,0,-999,0,0.00
2013-5-16,50,42,35,-100,-100,-100,0,0,100,0.00,40.00,0,-999,0,0.01
2013-5-17,41,37,35,-100,-100,-100,0,0,100,0.00,40.00,0,-999,0,0.03
2013-5-18,40,35,33,-100,-100,-100,0,0,100,0.00,40.00,0,-999,0,0.04
2013-5-19,40,34,32,-100,-100,-100,0,0,100,0.00,40.00,0,-999,0,0.03
2013-5-20,44,37,32,-100,-100,-100,0,0,100,0.00,40.00,0,-999,0,0.02
2013-5-21,53,41,32,-100,-100,-100,0,0,100,0.00,40.00,0,-999,0,0.00
2013-5-22,60,44,32,-100,-100,-100,0,0,100,0.00,40.00,0,-999,0,0.01
2013-5-23,49,37,27,-100,-100,-100,0,0,100,0.00,40.00,0,-999,0,0.00
2013-5-24,47,36,25,-100,-100,-100,0,0,100,0.00,40.00,0,-999,0,0.01
2013-5-25,51,44,38,-100,-100,-100,0,0,100,0.00,40.00,0,-999,0,0.01
2013-5-26,53,45,37,-100,-100,-100,0,0,100,0.00,40.00,0,-999,0,0.00
2013-5-27,45,37,31,-100,-100,-100,0,0,100,0.00,40.00,0,-999,0,0.01
2013-5-28,40,35,33,-100,-100,-100,0,0,100,0.00,40.00,0,-999,0,0.01
2013-5-29,37,34,33,-100,-100,-100,0,0,100,0.00,40.00,0,-999,0,0.06
2013-5-30,37,32,30,-100,-100,-100,0,0,100,0.00,40.00,0,-999,0,0.04
2013-5-31,42,34,29,-100,-100,-100,0,0,100,0.00,40.00,0,-999,0,0.01
2013-6-1,54,42,28,-100,-100,-100,0,0,100,0.00,40.00,0,-999,0,0.00
2013-6-2,57,50,42,-100,-100,-100,0,0,100,0.00,40.00,0,-999,0,0.01
2013-6-3,45,37,31,-100,-100,-100,0,0,100,0.00,40.00,0,-999,0,0.00
2013-6-4,49,43,37,-100,-100,-100,0,0,100,0.00,40.00,0,-999,0,0.00
2013-6-5,55,45,35,-100,-100,-100,0,0,100,0.00,40.00,0,-999,0,0.00
2013-6-6,60,51,43,-100,-100,-100,0,0,100,0.00,40.00,0,-999,0,0.01
2013-6-7,60,52,43,-100,-100,-100,0,0,100,0.00,40.00,0,-999,0,0.00
2013-6-8,57,50,42,-100,-100,-100,0,0,100,0.00,40.00,0,-999,0,0.00
2013-6-9,63,54,44,-100,-100,-100,0,0,100,0.00,40.00,0,-999,0,0.00
2013-6-10,66,60,54,-100,-100,-100,0,0,100,0.00,40.00,0,-999,0,0.00
2013-6-11,59,54,49,-100,-100,-100,0,0,100,0.00,40.00,0,-999,0,0.00
2013-6-12,51,48,43,-100,-100,-100,0,0,100,0.00,40.00,0,-999,0,0.00
2013-6-13,56,48,34,-100,-100,-100,0,0,100,0.00,40.00,0,-999,0,0.01
2013-6-14,44,37,29,-100,-100,-100,0,0,100,0.00,40.00,0,-999,0,0.01
2013-6-15,57,46,33,-100,-100,-100,0,0,100,0.00,40.00,0,-999,0,0.00
2013-6-16,61,53,45,-100,-100,-100,0,0,100,0.00,40.00,0,-999,0,0.01
2013-6-17,63,55,46,-100,-100,-100,0,0,100,0.00,40.00,0,-999,0,0.00
2013-6-18,64,58,50,-100,-100,-100,0,0,100,0.00,40.00,0,-999,0,0.00
2013-6-19,54,47,33,-100,-100,-100,0,0,100,0.00,40.00,0,-999,0,0.00
2013-6-20,43,33,28,-100,-100,-100,0,0,100,0.00,40.00,0,-999,0,0.00
2013-6-22,46,42,36,-100,-100,-100,0,0,100,0.00,40.00,0,-999,0,0.00
2013-6-23,56,48,37,-100,-100,-100,0,0,100,0.00,40.00,0,-999,0,0.00
2013-6-24,57,52,41,-100,-100,-100,0,0,100,0.00,40.00,0,-999,0,0.00
2013-6-25,48,43,39,-100,-100,-100,0,0,100,0.00,40.00,0,-999,0,0.02
2013-6-26,58,51,45,-100,-100,-100,0,0,100,0.00,40.00,0,-999,0,0.01
2013-6-27,68,59,50,-100,-100,-100,0,0,100,0.00,40.00,0,-999,0,0.00
2013-6-28,72,65,58,-100,-100,-100,0,0,100,0.00,40.00,0,-999,0,0.00
2013-6-29,71,62,56,-100,-100,-100,0,0,100,0.00,40.00,0,-999,0,0.00
2013-6-30,70,62,53,-100,-100,-100,0,0,100,0.00,40.00,0,-999,0,0.00
2013-7-1,71,63,56,-100,-100,-100,0,0,100,0.00,40.00,0,-999,0,0.00
2013-7-2,74,65,55,-100,-100,-100,0,0,100,0.00,40.00,0,-999,0,0.00
2013-7-3,71,63,56,-100,-100,-100,0,0,100,0.00,40.00,0,-999,0,0.00
2013-7-4,66,60,55,-100,-100,-100,0,0,100,0.00,40.00,0,-999,0,0.00
2013-7-5,62,57,50,-100,-100,-100,0,0,100,0.00,40.00,0,-999,0,0.01
2013-7-6,58,51,48,-100,-100,-100,0,0,100,0.00,40.00,0,-999,0,0.01
2013-7-7,64,56,51,-100,-100,-100,0,0,100,0.00,40.00,0,-999,0,0.00
2013-7-8,63,56,52,-100,-100,-100,0,0,100,0.00,40.00,0,-999,0,0.00
2013-7-9,67,59,50,-100,-100,-100,0,0,100,0.00,40.00,0,-999,0,0.00
2013-7-10,70,64,56,-100,-100,-100,0,0,100,0.00,40.00,0,-999,0,0.00
2013-7-11,62,57,45,-100,-100,-100,0,0,100,0.00,40.00,0,-999,0,0.00
2013-7-12,60,53,46,-100,-100,-100,0,0,100,0.00,40.00,0,-999,0,0.01
2013-7-13,62,56,52,-100,-100,-100,0,0,100,0.00,40.00,0,-999,0,0.01
2013-7-14,65,58,51,-100,-100,-100,0,0,100,0.00,40.00,0,-999,0,0.00
2013-7-15,69,60,53,-100,-100,-100,0,0,100,0.00,40.00,0,-999,0,0.00
2013-7-16,66,60,57,-100,-100,-100,0,0,100,0.00,40.00,0,-999,0,0.00
2013-7-17,70,61,51,-100,-100,-100,0,0,100,0.00,40.00,0,-999,0,0.01
2013-7-18,70,62,55,-100,-100,-100,0,0,100,0.00,40.00,0,-999,0,0.00
2013-7-19,70,62,54,-100,-100,-100,0,0,100,0.00,40.00,0,-999,0,0.00
2013-7-20,69,61,55,-100,-100,-100,0,0,100,0.00,40.00,0,-999,0,0.00
2013-7-21,69,61,52,-100,-100,-100,0,0,100,0.00,40.00,0,-999,0,0.00
2013-7-22,69,62,56,-100,-100,-100,0,0,100,0.00,40.00,0,-999,0,0.00
2013-7-23,68,60,51,-100,-100,-100,0,0,100,0.00,40.00,0,-999,0,0.00
2013-7-24,69,62,55,-100,-100,-100,0,0,100,0.00,40.00,0,-999,0,0.00
2013-7-25,69,62,55,-100,-100,-100,0,0,100,0.00,40.00,0,-999,0,0.00
2013-7-26,71,62,54,-100,-100,-100,0,0,100,0.00,40.00,0,-999,0,0.00
2013-7-27,60,53,46,-100,-100,-100,0,0,100,0.00,40.00,0,-999,0,0.01
2013-7-28,61,51,45,-100,-100,-100,0,0,100,0.00,40.00,0,-999,0,0.01
2013-7-29,60,51,47,-100,-100,-100,0,0,100,0.00,40.00,0,-999,0,0.02
2013-7-30,64,56,48,-100,-100,-100,0,0,100,0.00,40.00,0,-999,0,0.01
2013-7-31,63,58,52,-100,-100,-100,0,0,100,0.00,40.00,0,-999,0,0.00
2013-8-1,68,61,50,-100,-100,-100,0,0,100,0.00,40.00,0,-999,0,0.01
2013-8-2,60,54,46,-100,-100,-100,0,0,100,0.00,40.00,0,-999,0,0.00
2013-8-3,65,57,48,-100,-100,-100,0,0,100,0.00,40.00,0,-999,0,0.00
2013-8-4,67,60,53,-100,-100,-100,0,0,100,0.00,40.00,0,-999,0,0.00
2013-8-5,69,61,55,-100,-100,-100,0,0,100,0.00,40.00,0,-999,0,0.00
2013-8-6,65,59,51,-100,-100,-100,0,0,100,0.00,40.00,0,-999,0,0.00
2013-8-7,67,59,51,-100,-100,-100,0,0,100,0.00,40.00,0,-999,0,0.00
2013-8-8,66,56,50,-100,-100,-100,0,0,100,0.00,40.00,0,-999,0,0.00
2013-8-9,66,57,49,-100,-100,-100,0,0,100,0.00,40.00,0,-999,0,0.00
2013-8-10,65,58,53,-100,-100,-100,0,0,100,0.00,40.00,0,-999,0,0.01
2013-8-11,65,58,52,-100,-100,-100,0,0,100,0.00,40.00,0,-999,0,0.00
2013-8-12,63,55,50,-100,-100,-100,0,0,100,0.00,40.00,0,-999,0,0.01
2013-8-13,63,54,50,-100,-100,-100,0,0,100,0.00,40.00,0,-999,0,0.00
2013-8-14,65,57,51,-100,-100,-100,0,0,100,0.00,40.00,0,-999,0,0.00
2013-8-15,71,62,54,-100,-100,-100,0,0,100,0.00,40.00,0,-999,0,0.00
2013-8-16,71,65,58,-100,-100,-100,0,0,100,0.00,40.00,0,-999,0,0.00
2013-8-17,73,65,59,-100,-100,-100,0,0,100,0.00,40.00,0,-999,0,0.00
2013-8-18,70,63,55,-100,-100,-100,0,0,100,0.00,40.00,0,-999,0,0.00
2013-8-19,70,62,55,-100,-100,-100,0,0,100,0.00,40.00,0,-999,0,0.00
2013-8-20,68,62,57,-100,-100,-100,0,0,100,0.00,40.00,0,-999,0,0.00
2013-8-21,62,56,53,-100,-100,-100,0,0,100,0.00,40.00,0,-999,0,0.01
2013-8-22,64,58,53,-100,-100,-100,0,0,100,0.00,40.00,0,-999,0,0.00
2013-8-23,64,56,49,-100,-100,-100,0,0,100,0.00,40.00,0,-999,0,0.01
2013-8-24,61,53,47,-100,-100,-100,0,0,100,0.00,40.00,0,-999,0,0.01
2013-8-25,62,56,47,-100,-100,-100,0,0,100,0.00,40.00,0,-999,0,0.01
2013-8-26,60,53,48,-100,-100,-100,0,0,100,0.00,40.00,0,-999,0,0.01
2013-8-27,60,54,48,-100,-100,-100,0,0,100,0.00,40.00,0,-999,0,0.00
2013-8-28,62,56,53,-100,-100,-100,0,0,100,0.00,40.00,0,-999,0,0.01
2013-8-29,63,58,54,-100,-100,-100,0,0,100,0.00,40.00,0,-999,0,0.01
2013-8-30,67,60,55,-100,-100,-100,0,0,100,0.00,40.00,0,-999,0,0.00
2013-8-31,67,57,50,-100,-100,-100,0,0,100,0.00,40.00,0,-999,0,0.00
2013-9-1,69,60,52,-100,-100,-100,0,0,100,0.00,40.00,0,-999,0,0.00
2013-9-2,61,56,49,-100,-100,-100,0,0,100,0.00,40.00,0,-999,0,0.02
2013-9-3,65,54,49,-100,-100,-100,0,0,100,0.00,40.00,0,-999,0,0.01
2013-9-4,64,58,53,-100,-100,-100,0,0,100,0.00,40.00,0,-999,0,0.02
2013-9-5,67,60,55,-100,-100,-100,0,0,100,0.00,40.00,0,-999,0,1.17
2013-9-6,65,58,50,-100,-100,-100,0,0,100,0.00,40.00,0,-999,0,0.01
2013-9-7,60,55,49,-100,-100,-100,0,0,100,0.00,40.00,0,-999,0,0.01
2013-9-8,55,50,45,-100,-100,-100,0,0,100,0.00,40.00,0,-999,0,0.01
2013-9-9,56,48,43,-100,-100,-100,0,0,100,0.00,40.00,0,-999,0,1.70
2013-9-10,62,52,45,-100,-100,-100,0,0,100,0.00,40.00,0,-999,0,0.01
2013-9-11,60,55,49,-100,-100,-100,0,0,100,0.00,40.00,0,-999,0,0.00
2013-9-12,57,51,47,-100,-100,-100,0,0,100,0.00,40.00,0,-999,0,0.00
2013-9-13,58,50,45,-100,-100,-100,0,0,100,0.00,40.00,0,-999,0,0.01
2013-9-14,55,48,44,-100,-100,-100,0,0,100,0.00,40.00,0,-999,0,0.01
2013-9-15,56,51,47,-100,-100,-100,0,0,100,0.00,40.00,0,-999,0,0.01
2013-9-16,59,51,46,-100,-100,-100,0,0,100,0.00,40.00,0,-999,0,0.00
2013-9-17,57,50,42,-100,-100,-100,0,0,100,0.00,40.00,0,-999,0,0.02
2013-9-18,46,37,32,-100,-100,-100,0,0,100,0.00,40.00,0,-999,0,0.02
2013-9-19,44,35,28,-100,-100,-100,0,0,100,0.00,40.00,0,-999,0,0.01
2013-9-20,57,48,36,-100,-100,-100,0,0,100,0.00,40.00,0,-999,0,0.01
2013-9-21,57,52,48,-100,-100,-100,0,0,100,0.00,40.00,0,-999,0,0.01
2013-9-22,53,46,35,-100,-100,-100,0,0,100,0.00,40.00,0,-999,0,0.00
2013-9-23,42,36,32,-100,-100,-100,0,0,100,0.00,40.00,0,-999,0,0.01
2013-9-24,50,43,37,-100,-100,-100,0,0,100,0.00,40.00,0,-999,0,0.01
2013-9-25,39,31,24,-100,-100,-100,0,0,100,0.00,40.00,0,-999,0,0.03
2013-9-26,34,29,23,-100,-100,-100,0,0,100,0.00,40.00,0,-999,0,0.01
2013-9-27,28,27,25,-100,-100,-100,0,0,100,0.00,40.00,0,-999,0,0.01
2013-9-28,35,30,27,-100,-100,-100,0,0,100,0.00,40.00,0,-999,0,0.02
2013-9-29,38,37,35,-100,-100,-100,0,0,100,0.00,40.00,0,-999,0,0.01
2013-9-30,42,39,36,-100,-100,-100,0,0,100,0.00,40.00,0,-999,0,0.01
2013-10-1,43,40,38,-100,-100,-100,0,0,100,0.00,40.00,0,-999,0,0.00
2013-10-2,41,35,30,-100,-100,-100,0,0,100,0.00,40.00,0,-999,0,0.00
2013-10-3,34,26,22,-100,-100,-100,0,0,100,0.00,40.00,0,-999,0,0.02
2013-10-4,29,26,22,-100,-100,-100,0,0,100,0.00,40.00,0,-999,0,0.02
2013-10-5,37,28,18,-100,-100,-100,0,0,100,0.00,40.00,0,-999,0,0.01
2013-10-6,48,38,27,-100,-100,-100,0,0,100,0.00,40.00,0,-999,0,0.01
2013-10-7,52,46,40,-100,-100,-100,0,0,100,0.00,40.00,0,-999,0,0.01
2013-10-8,38,36,29,-100,-100,-100,0,0,100,0.00,40.00,0,-999,0,0.00
2013-10-9,43,38,31,-100,-100,-100,0,0,100,0.00,40.00,0,-999,0,0.00
2013-10-10,41,40,38,-100,-100,-100,0,0,100,0.00,40.00,0,-999,0,0.00
2013-10-11,32,28,26,-100,-100,-100,0,0,100,0.00,40.00,0,-999,0,0.01
2013-10-12,34,29,24,-100,-100,-100,0,0,100,0.00,40.00,0,-999,0,0.01
2013-10-13,39,34,30,-100,-100,-100,0,0,100,0.00,40.00,0,-999,0,0.02
2013-10-21,33,32,30,-100,-100,-100,0,0,100,0.00,40.00,0,-999,0,0.00
2013-10-22,49,39,32,-100,-100,-100,0,0,100,0.00,40.00,0,-999,0,0.00
2013-10-23,48,38,33,-100,-100,-100,0,0,100,0.00,40.00,0,-999,0,0.00
2013-10-24,50,43,38,-100,-100,-100,0,0,100,0.00,40.00,0,-999,0,0.00
2013-10-25,40,38,36,-100,-100,-100,0,0,100,0.00,40.00,0,-999,0,0.00
2013-10-26,47,39,34,-100,-100,-100,0,0,100,0.00,40.00,0,-999,0,0.00
2013-10-27,40,38,37,-100,-100,-100,0,0,100,0.00,40.00,0,-999,0,0.00
2013-10-28,37,33,30,-100,-100,-100,0,0,100,0.00,40.00,0,-999,0,0.00
2013-10-29,32,27,25,-100,-100,-100,0,0,100,0.00,40.00,0,-999,0,0.01
2013-10-30,25,24,24,-100,-100,-100,0,0,100,0.00,40.00,0,-999,0,0.00
2013-10-31,28,26,24,-100,-100,-100,0,0,100,0.00,40.00,0,-999,0,0.00
2013-11-1,33,28,24,-100,-100,-100,0,0,100,0.00,40.00,0,-999,0,0.01
2013-11-2,36,32,26,-100,-100,-100,0,0,100,0.00,40.00,0,-999,0,0.01
2013-11-3,31,20,14,-100,-100,-100,0,0,100,0.00,40.00,0,-999,0,0.00
2013-11-12,48,41,31,-100,-100,-100,0,0,100,0.00,40.00,0,-999,0,0.01
2013-11-13,38,34,31,-100,-100,-100,0,0,100,0.00,40.00,0,-999,0,0.01
2013-11-14,27,25,24,-100,-100,-100,0,0,100,0.00,40.00,0,-999,0,0.00
2013-11-15,20,18,16,-100,-100,-100,0,0,100,0.00,40.00,0,-999,0,0.00
2013-11-16,20,18,13,-100,-100,-100,0,0,100,0.00,40.00,0,-999,0,0.02
2013-11-17,19,16,12,-100,-100,-100,0,0,100,0.00,40.00,0,-999,0,0.00
2013-11-18,32,25,21,-100,-100,-100,0,0,100,0.00,40.00,0,-999,0,0.01
2013-11-19,32,28,27,-100,-100,-100,0,0,100,0.00,40.00,0,-999,0,0.02
2013-11-20,29,25,19,-100,-100,-100,0,0,100,0.00,40.00,0,-999,0,0.02
2013-11-21,19,15,13,-100,-100,-100,0,0,100,0.00,40.00,0,-999,0,0.01
2013-11-22,28,23,13,-100,-100,-100,0,0,100,0.00,40.00,0,-999,0,0.01
2013-11-23,37,30,27,-100,-100,-100,0,0,100,0.00,40.00,0,-999,0,0.00
2013-11-24,36,30,26,-100,-100,-100,0,0,100,0.00,40.00,0,-999,0,0.00
2013-11-25,28,26,24,-100,-100,-100,0,0,100,0.00,40.00,0,-999,0,0.00
2013-11-26,32,29,26,-100,-100,-100,0,0,100,0.00,40.00,0,-999,0,0.00
2013-11-27,37,32,30,-100,-100,-100,0,0,100,0.00,40.00,0,-999,0,0.00
2013-11-28,41,33,30,-100,-100,-100,0,0,100,0.00,40.00,0,-999,0,0.00
2013-11-29,32,28,25,-100,-100,-100,0,0,100,0.00,40.00,0,-999,0,0.00
2013-11-30,26,25,24,-100,-100,-100,0,0,100,0.00,40.00,0,-999,0,0.01
2013-12-1,26,26,25,-100,-100,-100,0,0,100,0.00,40.00,0,-999,0,0.04
2013-12-2,27,26,26,-100,-100,-100,0,0,100,0.00,40.00,0,-999,0,0.02
2013-12-3,6,0,-8,-100,-100,-100,0,0,100,0.00,40.00,0,-999,0,0.00
2013-12-4,-1,-6,-11,-100,-100,-100,0,0,100,0.00,40.00,0,-999,0,0.00
2013-12-5,2,-10,-16,-100,-100,-100,0,0,100,0.00,40.00,0,-999,0,0.00
2013-12-6,-1,-8,-16,-100,-100,-100,0,0,100,0.00,40.00,0,-999,0,0.02
2013-12-7,8,3,-5,-100,-100,-100,0,0,100,0.00,40.00,0,-999,0,0.02
2013-12-8,-1,-7,-15,-100,-100,-100,0,0,100,0.00,40.00,0,-999,0,0.00
2013-12-9,-2,-6,-20,-100,-100,-100,0,0,100,0.00,40.00,0,-999,0,0.02
2013-12-10,8,5,-1,-100,-100,-100,0,0,100,0.00,40.00,0,-999,0,0.01
2013-12-11,15,10,3,-100,-100,-100,0,0,100,0.00,40.00,0,-999,0,0.01
2013-12-12,22,17,15,-100,-100,-100,0,0,100,0.00,40.00,0,-999,0,0.01
2013-12-13,21,18,13,-100,-100,-100,0,0,100,0.00,40.00,0,-999,0,0.00
2013-12-14,20,18,15,-100,-100,-100,0,0,100,0.00,40.00,0,-999,0,0.00
2013-12-15,23,22,20,-100,-100,-100,0,0,100,0.00,40.00,0,-999,0,0.00
2013-12-16,23,21,19,-100,-100,-100,0,0,100,0.00,40.00,0,-999,0,0.00
2013-12-17,31,27,22,-100,-100,-100,0,0,100,0.00,40.00,0,-999,0,0.01
2013-12-18,33,30,27,-100,-100,-100,0,0,100,0.00,40.00,0,-999,0,0.01
2013-12-19,24,16,8,-100,-100,-100,0,0,100,0.00,40.00,0,-999,0,0.01
2013-12-20,9,7,5,-100,-100,-100,0,0,100,0.00,40.00,0,-999,0,0.00
2013-12-22,17,15,13,-100,-100,-100,0,0,100,0.00,40.00,0,-999,0,0.00
2013-12-23,25,23,18,-100,-100,-100,0,0,100,0.00,40.00,0,-999,0,0.05
2013-12-24,17,12,9,-100,-100,-100,0,0,100,0.00,40.00,0,-999,0,0.01
2013-12-25,17,13,10,-100,-100,-100,0,0,100,0.00,40.00,0,-999,0,0.00
2013-12-26,30,24,19,-100,-100,-100,0,0,100,0.00,40.00,0,-999,0,0.01
2013-12-27,31,27,24,-100,-100,-100,0,0,100,0.00,40.00,0,-999,0,0.00
2013-12-28,23,20,18,-100,-100,-100,0,0,100,0.00,40.00,0,-999,0,0.00
2013-12-29,17,14,10,-100,-100,-100,0,0,100,0.00,40.00,0,-999,0,0.00
2013-12-30,23,21,19,-100,-100,-100,0,0,100,0.00,40.00,0,-999,0,0.00
2013-12-31,22,21,19,-100,-100,-100,0,0,100,0.00,40.00,0,-999,0,0.03
2014-1-1,18,16,12,-100,-100,-100,0,0,100,0.00,40.00,0,-999,0,0.02
2014-1-2,24,18,13,-100,-100,-100,0,0,100,0.00,40.00,0,-999,0,0.01